Track COSMOS 2195 now! 10-day predictions COSMOS 2195 is classified as:
1 22006U 92036A 22147.57887522 .00000025 00000-0 10081-4 0 9991 2 22006 82.9352 77.1439 0038452 87.3591 86.2894 13.74983003500502